Location: Neuvy Saint Sepulchre
(46.5953°N, 1.8122°E)
Time: 15:35:09
(UTC+02:00)

ISS - Pass Details

Date: 13 May 2026
Orbit: 414 x 424 km, 51.6° (Epoch: 21 May)

Event Time Altitude Azimuth Distance (km) Brightness Sun altitude
Rises 00:06:09 0° 284° (WNW) 2,351 0.6 -21.1°
Reaches altitude 10° 00:08:22 10° 294° (WNW) 1,490 -0.3 -21.2°
Maximum altitude 00:11:26 33° 0° (N) 729 -2.0 -21.4°
Enters shadow 00:13:25 18° 56° (NE) 1,112 -1.5 -21.6°
